Weather History for DeKalb, IL

Change the Weather History Date:

Sunday, March 30, 2014

  Actual Average (KARR) Record (KARR)
Temperature  
Mean Temperature 38 °F 43 °F  
Max Temperature 53 °F 54 °F 76 °F (2005)
Min Temperature 23 °F 32 °F 22 °F (2000)
Degree Days  
Heating Degree Days 27 22  
Month to date heating degree days 848  
Since 1 July heating degree days 5986  
Cooling Degree Days 0 0  
Month to date cooling degree days 0  
Year to date cooling degree days 0  
Moisture  
Dew Point 28 °F    
Average Humidity 65    
Maximum Humidity 80    
Minimum Humidity 49    
Precipitation  
Precipitation 0.00 in 0.07 in 0.48 in (2012)
Month to date precipitation 2.15  
Year to date precipitation 5.24  
Sea Level Pressure  
Sea Level Pressure 30.15 in    
Wind  
Wind Speed 8 mph (South)    
Max Wind Speed 17 mph    
Max Gust Speed 23 mph    
Visibility 10 miles    
Events      
T = Trace of Precipitation, MM = Missing Value Source: NWS Daily Summary

Daily Weather History Graph

Daily Weather History Graph

Search for Another Location

Airport:

Trip Planner

Search our weather history database for the weather conditions in past years. The results will help you decide how hot, cold, wet, or windy it might be!

Date:

Astronomy

Mar. 30, 2014 Rise Set
Actual Time 6:40 AM CDT 7:18 PM CDT
Civil Twilight 6:12 AM CDT 7:46 PM CDT
Nautical Twilight 5:39 AM CDT 8:19 PM CDT
Astronomical Twilight 5:05 AM CDT 8:53 PM CDT
Moon 6:26 AM CDT (3/30) 7:31 PM CDT (3/30)
Length of Visible Light 13h 33m
Length of Day
12h 37m
Waning Crescent, 0% of the Moon is Illuminated
Mar 30
Waning Crescent
Mar 30
New
Apr 7
First Quarter
Apr 15
Full
Apr 22
Last Quarter

Hourly Weather History & Observations

Time (CDT) Temp. Windchill Dew Point Humidity Pressure Visibility Wind Dir Wind Speed Gust Speed Precip Events Conditions
12:15 AM 28.4 °F 23.3 °F 17.1 °F 63% 30.25 in 10.0 mi East 4.6 mph - N/A   Clear
12:35 AM 29.7 °F 24.7 °F 17.6 °F 61% 30.25 in 10.0 mi East 4.6 mph - N/A   Clear
1:15 AM 28.0 °F - 17.2 °F 64% 30.25 in 10.0 mi Calm Calm - N/A   Clear
1:35 AM 27.3 °F - 17.4 °F 66% 30.26 in 10.0 mi Calm Calm - N/A   Clear
1:55 AM 28.0 °F - 15.8 °F 60% 30.25 in 10.0 mi Calm Calm - N/A   Clear
2:15 AM 24.3 °F - 18.0 °F 77% 30.24 in 10.0 mi Calm Calm - N/A   Clear
2:35 AM 25.5 °F - 18.0 °F 73% 30.24 in 10.0 mi Calm Calm - N/A   Clear
2:55 AM 26.4 °F 22.4 °F 18.1 °F 71% 30.24 in 10.0 mi SE 3.5 mph - N/A   Clear
3:15 AM 26.6 °F 22.6 °F 17.4 °F 68% 30.24 in 10.0 mi South 3.5 mph - N/A   Clear
3:35 AM 25.9 °F 19.2 °F 18.5 °F 74% 30.24 in 10.0 mi SSW 5.8 mph - N/A   Clear
3:55 AM 25.9 °F 21.7 °F 18.0 °F 72% 30.23 in 10.0 mi South 3.5 mph - N/A   Clear
4:15 AM 26.4 °F 22.4 °F 17.4 °F 69% 30.22 in 10.0 mi South 3.5 mph - N/A   Clear
4:35 AM 25.5 °F 19.9 °F 19.6 °F 78% 30.21 in 10.0 mi South 4.6 mph - N/A   Clear
4:55 AM 25.5 °F 21.3 °F 18.1 °F 74% 30.21 in 10.0 mi South 3.5 mph - N/A   Clear
5:15 AM 25.5 °F 19.9 °F 18.9 °F 76% 30.22 in 10.0 mi SSE 4.6 mph - N/A   Clear
5:35 AM 24.6 °F 16.7 °F 16.7 °F 72% 30.21 in 10.0 mi South 6.9 mph - N/A   Clear
5:55 AM 24.3 °F 17.3 °F 18.5 °F 79% 30.23 in 10.0 mi South 5.8 mph - N/A   Clear
6:15 AM 26.6 °F 21.2 °F 17.6 °F 69% 30.23 in 10.0 mi SSW 4.6 mph - N/A   Clear
6:35 AM 23.5 °F 16.4 °F 16.7 °F 75% 30.22 in 10.0 mi South 5.8 mph - N/A   Clear
6:55 AM 24.1 °F 17.0 °F 16.5 °F 73% 30.22 in 10.0 mi South 5.8 mph - N/A   Clear
7:15 AM 24.1 °F 17.0 °F 18.3 °F 79% 30.23 in 10.0 mi South 5.8 mph - N/A   Clear
7:35 AM 27.3 °F 22.0 °F 21.4 °F 78% 30.24 in 10.0 mi SSW 4.6 mph - N/A   Clear
7:55 AM 29.8 °F 23.9 °F 23.2 °F 76% 30.24 in 10.0 mi South 5.8 mph - N/A   Clear
8:15 AM 31.6 °F 25.1 °F 23.7 °F 73% 30.23 in 10.0 mi South 6.9 mph - N/A   Clear
8:35 AM 32.4 °F 25.3 °F 24.3 °F 72% 30.23 in 10.0 mi South 8.1 mph - N/A   Clear
8:55 AM 33.3 °F 25.7 °F 23.4 °F 67% 30.23 in 10.0 mi South 9.2 mph - N/A   Clear
9:15 AM 34.3 °F 25.9 °F 23.7 °F 65% 30.23 in 10.0 mi South 11.5 mph - N/A   Clear
9:35 AM 35.4 °F 27.8 °F 23.2 °F 61% 30.24 in 10.0 mi SSW 10.4 mph - N/A   Clear
9:55 AM 36.3 °F 28.9 °F 23.9 °F 61% 30.24 in 10.0 mi South 10.4 mph - N/A   Clear
10:15 AM 37.6 °F 30.5 °F 26.6 °F 65% 30.23 in 10.0 mi SSW 10.4 mph - N/A   Clear
10:35 AM 38.5 °F 31.1 °F 26.1 °F 61% 30.22 in 10.0 mi South 11.5 mph - N/A   Clear
10:55 AM 39.7 °F 32.7 °F 27.1 °F 61% 30.22 in 10.0 mi South 11.5 mph - N/A   Clear
11:15 AM 40.8 °F 34.1 °F 27.9 °F 60% 30.21 in 10.0 mi South 11.5 mph - N/A   Clear
11:35 AM 41.9 °F 34.3 °F 28.6 °F 59% 30.20 in 10.0 mi South 15.0 mph - N/A   Clear
11:55 AM 43.2 °F 37.0 °F 28.9 °F 57% 30.20 in 10.0 mi South 11.5 mph - N/A   Clear
12:15 PM 44.1 °F 38.1 °F 29.7 °F 57% 30.20 in 10.0 mi SSW 11.5 mph - N/A   Clear
12:35 PM 45.1 °F 39.1 °F 30.9 °F 58% 30.19 in 10.0 mi South 12.7 mph 16.1 mph N/A   Clear
12:55 PM 46.4 °F 40.4 °F 31.3 °F 56% 30.18 in 10.0 mi South 13.8 mph 20.7 mph N/A   Clear
1:15 PM 47.5 °F - 32.0 °F 55% 30.16 in 10.0 mi South 17.3 mph - N/A   Clear
1:35 PM 47.8 °F - 31.6 °F 53% 30.15 in 10.0 mi South 12.7 mph - N/A   Clear
1:55 PM 49.3 °F - 32.2 °F 52% 30.14 in 10.0 mi South 15.0 mph 23.0 mph N/A   Clear
2:15 PM 50.2 °F - 32.7 °F 51% 30.13 in 10.0 mi South 17.3 mph 21.9 mph N/A   Clear
2:35 PM 50.7 °F - 32.7 °F 50% 30.12 in 10.0 mi South 17.3 mph - N/A   Clear
2:55 PM 51.3 °F - 32.9 °F 50% 30.11 in 10.0 mi South 15.0 mph - N/A   Clear
3:15 PM 51.8 °F - 33.3 °F 49% 30.10 in 10.0 mi South 15.0 mph 20.7 mph N/A   Clear
3:35 PM 52.2 °F - 33.8 °F 50% 30.10 in 10.0 mi SSW 15.0 mph - N/A   Clear
3:55 PM 52.7 °F - 34.0 °F 49% 30.09 in 10.0 mi South 16.1 mph - N/A   Clear
4:15 PM 53.1 °F - 34.9 °F 50% 30.09 in 10.0 mi SSW 15.0 mph - N/A   Clear
4:35 PM 52.9 °F - 35.1 °F 51% 30.08 in 10.0 mi South 15.0 mph - N/A   Clear
4:55 PM 52.3 °F - 36.5 °F 55% 30.07 in 10.0 mi South 17.3 mph 23.0 mph N/A   Clear
5:15 PM 52.9 °F - 36.5 °F 54% 30.07 in 10.0 mi South 16.1 mph - N/A   Clear
5:35 PM 52.5 °F - 36.5 °F 54% 30.06 in 10.0 mi South 17.3 mph - N/A   Clear
5:55 PM 51.8 °F - 36.7 °F 56% 30.06 in 10.0 mi South 16.1 mph - N/A   Clear
6:15 PM 50.0 °F - 36.7 °F 60% 30.05 in 10.0 mi South 15.0 mph - N/A   Clear
6:35 PM 48.4 °F - 37.2 °F 65% 30.04 in 10.0 mi South 12.7 mph - N/A   Clear
6:55 PM 48.0 °F - 37.4 °F 67% 30.03 in 10.0 mi South 11.5 mph - N/A   Clear
7:15 PM 47.5 °F - 37.0 °F 67% 30.03 in 10.0 mi SSE 12.7 mph - N/A   Clear
7:35 PM 46.9 °F - 36.1 °F 66% 30.03 in 10.0 mi SSE 13.8 mph - N/A   Clear
7:55 PM 45.7 °F 39.5 °F 35.8 °F 68% 30.03 in 10.0 mi SSE 13.8 mph - N/A   Clear
8:15 PM 44.8 °F 39.0 °F 35.6 °F 70% 30.03 in 10.0 mi SSE 11.5 mph - N/A   Clear
8:35 PM 43.9 °F 37.5 °F 35.6 °F 73% 30.04 in 10.0 mi South 12.7 mph - N/A   Clear
8:55 PM 43.9 °F 37.5 °F 35.6 °F 73% 30.04 in 10.0 mi SSE 12.7 mph - N/A   Clear
9:15 PM 43.7 °F 37.3 °F 35.4 °F 73% 30.04 in 10.0 mi SSE 12.7 mph - N/A   Clear
9:35 PM 42.8 °F 36.6 °F 35.1 °F 74% 30.03 in 10.0 mi SSE 11.5 mph - N/A   Clear
9:55 PM 43.2 °F 35.6 °F 35.2 °F 74% 30.03 in 10.0 mi SSE 16.1 mph - N/A   Clear
10:15 PM 43.2 °F 36.6 °F 35.1 °F 73% 30.02 in 10.0 mi SSE 12.7 mph - N/A   Clear
10:35 PM 42.1 °F 35.2 °F 34.7 °F 75% 30.03 in 10.0 mi South 12.7 mph - N/A   Clear
10:55 PM 40.8 °F 34.1 °F 34.3 °F 78% 30.03 in 10.0 mi SSE 11.5 mph - N/A   Clear
11:15 PM 41.4 °F 34.3 °F 34.0 °F 75% 30.03 in 10.0 mi SSE 12.7 mph - N/A   Clear
11:35 PM 40.1 °F 33.6 °F 33.3 °F 77% 30.02 in 10.0 mi SSE 10.4 mph - N/A   Clear
11:55 PM 38.8 °F 31.6 °F 33.1 °F 80% 30.02 in 10.0 mi SSE 11.5 mph - N/A   Clear